Location: Namasale
(1.5000°N, 32.6167°E)
Time: 22:18:37
(UTC+00:00)

Ariane H10 - Pass Details

Date: 09 April 2020
Orbit: 474 x 35413 km, 7.2° (Epoch: 01 June)

Event Time Altitude Azimuth Distance (km) Brightness Sun altitude
Rises 16:19:21 0° 271° (W) 4,244 9.3 -6.8°
Reaches altitude 10° 16:23:11 10° 278° (W) 2,263 7.2 -7.8°
Maximum altitude 16:27:01 44° 353° (N) 680 2.9 -8.7°
Drops below altitude 10° 16:29:51 10° 68° (ENE) 1,678 4.3 -9.4°
Enters shadow 16:29:58 - 69° (ENE) 1,738 4.3 -9.4°
